Home > Weather > Osage City > Past weeks

Flag for USA Past Weather in Osage City, Kansas, USA — Yesterday and Last 2 Weeks

Now
91 °F

Passing clouds.


Feels Like: 96 °F
Forecast: 70 / 86 °F
Wind: 6 mph from Southeast

Location: Forbes Field

Current Time: Aug 29, 2016 at 5:01:37 PM

Latest Report: Aug 29, 2016 at 3:53 PM


Visibility: 10 mi

Pressure: 30.08 "Hg

Humidity: 49%

Dew Point: 69 °F

Location of Osage CityLocation

Past Weather in Osage City — Graph

°F

Osage City Temperature Yesterday

Maximum temperature yesterday: 91 °F (at 1:53 PM)
Minimum temperature yesterday: 71 °F (at 5:53 AM)
Average temperature yesterday: 80 °F

High & Low Weather Summary for the Past Weeks

 TemperatureHumidityPressure
High94 °F (Aug 17, 3:53 PM)97% (Aug 25, 5:53 AM)30.16 "Hg (Aug 25, 5:53 AM)
Low55 °F (Aug 21, 6:53 AM)29% (Aug 14, 3:53 PM)29.72 "Hg (Aug 19, 4:53 PM)
Average76 °F74%29.99 "Hg
* Reported Aug 14 3:53 PM — Aug 29 3:53 PM, Osage City, Weather by CustomWeather, © 2016

Note: Actual official high and low records may vary slightly from our data, if they occured in-between our weather recording intervals... More about our weather records

Advertising

Osage City Weather History for the Previous 24 Hours

Scroll right to see more
 ConditionsComfort  
Time TempWeatherWind HumidityBarometerVisibility
3:53 PM
Mon, Aug 29
91 °FPassing clouds.6 mph49%30.08 "Hg10 mi
2:53 PM89 °FScattered clouds.10 mph52%30.11 "Hg10 mi
1:53 PM88 °FPassing clouds.5 mph55%30.13 "Hg10 mi
12:53 PM89 °FPassing clouds.5 mph52%30.15 "Hg10 mi
11:53 AM87 °FSunny.3 mph57%30.16 "Hg10 mi
10:53 AM86 °FPartly sunny.6 mph61%30.16 "Hg10 mi
9:53 AM81 °FSunny.3 mph74%30.15 "Hg10 mi
8:53 AM76 °FSunny.No wind85%30.14 "Hg10 mi
7:53 AM73 °FSunny.5 mph90%30.13 "Hg8 mi
6:53 AM70 °FClear.3 mph93%30.11 "Hg7 mi
5:53 AM70 °FClear.No wind90%30.09 "Hg10 mi
4:53 AM72 °FClear.No wind91%30.09 "Hg10 mi
3:53 AM72 °FClear.No wind91%30.09 "Hg10 mi
2:53 AM74 °FClear.No wind88%30.08 "Hg10 mi
1:53 AM74 °FClear.5 mph88%30.06 "Hg10 mi
12:53 AM76 °FClear.6 mph82%30.08 "Hg10 mi
11:53 PM
Sun, Aug 28
76 °FClear.6 mph82%30.10 "Hg10 mi
10:53 PM78 °FMostly cloudy.5 mph84%30.11 "Hg10 mi
9:53 PM79 °FClear.No wind79%30.09 "Hg10 mi
8:53 PM78 °FSunny.No wind82%30.06 "Hg10 mi
7:53 PM81 °FSunny.No wind79%30.05 "Hg10 mi
6:53 PM85 °FThundershowers. Sunny.5 mph65%30.03 "Hg10 mi
5:53 PM89 °FPassing clouds.9 mph57%30.01 "Hg10 mi
Weather by CustomWeather, © 2016

See weather overviewHow to use our weather pages